Tracking 19192 objects as of 19-Jun-2018
HD Live streaming from Space Station
objects crossing your sky now

COSMOS 2251 DEB

Track COSMOS 2251 DEB now!
10-day predictions


NORAD ID: 35970
Int'l Code: 1993-036AVL
Perigee: 675.6 km
Apogee: 734.7 km
Inclination: 74.0 °
Period: 98.7 minutes
Semi major axis: 7076 km
RCS: 0.0106 m2 (small)
Launch date: June 16, 1993
Source: Commonwealth of Independent States (former USSR) (CIS)
Launch site: PLESETSK MISSILE AND SPACE COMPLEX (PKMTR)

Note: This is SATELLITE DEBRIS
aabbcc
Your satellite tracking list
Your tracking list is empty




NASA's NSSDC Master Catalog

Two Line Element Set (TLE):
1 35970U 93036AVL 18169.09719081 +.00000671 +00000-0 +14923-3 0  9991
2 35970 074.0426 084.5038 0041805 163.9445 196.3056 14.58498877466879
Source of the keplerian elements: AFSPC